N5828R KBIS-KBIS

Flight info

Callsign N5828R
Flight time 0h 0m
Altitude 5000
Route PATTERN WORK/MANUEVERS
Aircraft C152/L-VGD/A

Departure

Time 2026-05-05 21:16
Airport Bismarck Municipal Airport (KBIS)

Arrival

Time 2026-05-05 21:17
Airport Bismarck Municipal Airport (KBIS)
Time Latitude Longitude Altitude Speed Heading
2026-05-05 21:09 46.77953 -100.76174 1649 ft 0 kts 270°
2026-05-05 21:12 46.77955 -100.76181 1649 ft 4 kts 318°
2026-05-05 21:12 46.78011 -100.76146 1649 ft 11 kts 11°
2026-05-05 21:12 46.78067 -100.76121 1647 ft 7 kts 326°
2026-05-05 21:13 46.78099 -100.76163 1647 ft 6 kts 320°
2026-05-05 21:13 46.78128 -100.76199 1646 ft 6 kts 318°
2026-05-05 21:13 46.78165 -100.76250 1645 ft 8 kts 319°
2026-05-05 21:13 46.78203 -100.76302 1646 ft 7 kts 317°
2026-05-05 21:14 46.78236 -100.76340 1647 ft 6 kts 330°
2026-05-05 21:14 46.78281 -100.76342 1647 ft 8 kts 30°
2026-05-05 21:14 46.78328 -100.76273 1647 ft 6 kts 48°
2026-05-05 21:14 46.78330 -100.76270 1647 ft 0 kts 49°
2026-05-05 21:15 46.78352 -100.76228 1647 ft 11 kts 50°
2026-05-05 21:15 46.78360 -100.76126 1645 ft 14 kts 123°
2026-05-05 21:15 46.78236 -100.75963 1645 ft 45 kts 137°
2026-05-05 21:15 46.77894 -100.75512 1647 ft 84 kts 135°
2026-05-05 21:16 46.77423 -100.74884 1767 ft 93 kts 137°
2026-05-05 21:16 46.76959 -100.74254 1961 ft 90 kts 135°
2026-05-05 21:16 46.76533 -100.73609 2136 ft 90 kts 131°
2026-05-05 21:16 46.76174 -100.72923 2326 ft 80 kts 94°
2026-05-05 21:17 46.76299 -100.72242 2455 ft 65 kts 38°
2026-05-05 21:17 46.76581 -100.71835 2688 ft 47 kts 339°
2026-05-05 21:17 46.76825 -100.72162 2856 ft 52 kts 318°
2026-05-05 21:17 46.77121 -100.72569 2911 ft 60 kts 319°
2026-05-05 21:18 46.77450 -100.73020 2898 ft 71 kts 318°
2026-05-05 21:18 46.77788 -100.73547 2867 ft 64 kts 316°
2026-05-05 21:18 46.78084 -100.74073 2712 ft 76 kts 313°
2026-05-05 21:18 46.78421 -100.74659 2721 ft 75 kts 311°
2026-05-05 21:19 46.78742 -100.75225 2709 ft 66 kts 314°
2026-05-05 21:19 46.79018 -100.75641 2638 ft 52 kts 316°
2026-05-05 21:19 46.79281 -100.76023 2536 ft 54 kts 311°
2026-05-05 21:19 46.79235 -100.76586 2420 ft 75 kts 240°
2026-05-05 21:20 46.78680 -100.76750 2154 ft 98 kts 154°
2026-05-05 21:20 46.78249 -100.75965 1683 ft 95 kts 141°
2026-05-05 21:20 46.77846 -100.75447 1646 ft 64 kts 138°
2026-05-05 21:20 46.77557 -100.75074 1640 ft 40 kts 137°
2026-05-05 21:21 46.77470 -100.75023 1642 ft 4 kts 268°
2026-05-05 21:21 46.77402 -100.75190 1644 ft 19 kts 257°
2026-05-05 21:21 46.77460 -100.75313 1643 ft 13 kts 317°
2026-05-05 21:21 46.77517 -100.75387 1644 ft 8 kts 318°
2026-05-05 21:22 46.77553 -100.75439 1644 ft 9 kts 315°
2026-05-05 21:22 46.77670 -100.75592 1646 ft 32 kts 318°
2026-05-05 21:22 46.77794 -100.75757 1648 ft 22 kts 320°
2026-05-05 21:22 46.77892 -100.75901 1650 ft 9 kts 274°
2026-05-05 21:23 46.77868 -100.76007 1651 ft 12 kts 282°
2026-05-05 21:23 46.77934 -100.76090 1649 ft 13 kts 329°
2026-05-05 21:23 46.77985 -100.76148 1649 ft 0 kts 276°